• In Deutschland
  • Länderverzeichnis
  • Für 7 Tage
  • Wassertemperatur
  • Satellitenkarten
  • Wetterkarte
  • Widgets
  • user-avatar
    Anmelden

    Stündliche Wetter Mykhunky

    Heute, 28 Mai, Montag

    Zeit Temperatur Niederschläge Wind Luftdruck Luftfeuchtigkeit
    00:00 +13°C° 0 mm 2 m/S 739 mmHg 77%
    01:00 +12°C° 0 mm 2 m/S 739 mmHg 78%
    02:00 +12°C° 0 mm 2 m/S 739 mmHg 78%
    03:00 +12°C° 0 mm 2 m/S 739 mmHg 78%
    04:00 +10°C° 0 mm 2 m/S 739 mmHg 79%
    05:00 +10°C° 0 mm 2 m/S 739 mmHg 80%
    06:00 +13°C° 0 mm 2 m/S 740 mmHg 75%
    07:00 +14°C° 0 mm 3 m/S 740 mmHg 71%
    08:00 +17°C° 0 mm 3 m/S 740 mmHg 66%
    09:00 +19°C° 0 mm 3 m/S 740 mmHg 62%
    10:00 +20°C° 0 mm 3 m/S 740 mmHg 57%
    11:00 +21°C° 0 mm 4 m/S 740 mmHg 53%
    12:00 +21°C° 0 mm 4 m/S 740 mmHg 52%
    13:00 +22°C° 0 mm 4 m/S 740 mmHg 51%
    14:00 +23°C° 0 mm 4 m/S 740 mmHg 50%
    15:00 +22°C° 0 mm 4 m/S 740 mmHg 53%
    16:00 +22°C° 0 mm 4 m/S 740 mmHg 55%
    17:00 +22°C° 0 mm 4 m/S 740 mmHg 57%
    18:00 +20°C° 0 mm 3 m/S 740 mmHg 64%
    19:00 +18°C° 0 mm 3 m/S 740 mmHg 70%
    20:00 +17°C° 0 mm 2 m/S 740 mmHg 77%
    21:00 +16°C° 0 mm 2 m/S 740 mmHg 80%
    22:00 +15°C° 0 mm 2 m/S 740 mmHg 82%
    23:00 +14°C° 0 mm 2 m/S 740 mmHg 85%

    Morgen, 29 Mai, Dienstag

    Zeit Temperatur Niederschläge Wind Luftdruck Luftfeuchtigkeit
    00:00 +14°C° 0 mm 2 m/S 740 mmHg 87%
    01:00 +13°C° 0 mm 2 m/S 740 mmHg 88%
    02:00 +13°C° 0 mm 2 m/S 740 mmHg 90%
    03:00 +13°C° 0 mm 2 m/S 740 mmHg 90%
    04:00 +13°C° 0 mm 2 m/S 740 mmHg 90%
    05:00 +13°C° 0 mm 2 m/S 740 mmHg 91%
    06:00 +15°C° 0 mm 2 m/S 740 mmHg 85%
    07:00 +17°C° 0 mm 3 m/S 740 mmHg 79%
    08:00 +19°C° 0 mm 3 m/S 740 mmHg 74%
    09:00 +20°C° 0 mm 3 m/S 740 mmHg 69%
    10:00 +22°C° 0 mm 3 m/S 740 mmHg 64%
    11:00 +23°C° 0 mm 4 m/S 740 mmHg 59%
    12:00 +23°C° 0 mm 4 m/S 740 mmHg 60%
    13:00 +23°C° 0 mm 4 m/S 740 mmHg 61%
    14:00 +23°C° 0 mm 4 m/S 739 mmHg 63%
    15:00 +23°C° 0,2 mm 4 m/S 739 mmHg 66%
    16:00 +23°C° 0,2 mm 4 m/S 738 mmHg 69%
    17:00 +22°C° 0,2 mm 4 m/S 738 mmHg 72%
    18:00 +21°C° 0,1 mm 3 m/S 738 mmHg 77%
    19:00 +20°C° 0,1 mm 3 m/S 738 mmHg 81%
    20:00 +18°C° 0,1 mm 3 m/S 738 mmHg 85%
    21:00 +17°C° 0 mm 3 m/S 738 mmHg 85%
    22:00 +16°C° 0 mm 3 m/S 737 mmHg 85%
    23:00 +14°C° 0 mm 3 m/S 737 mmHg 85%

    übermorgen, 30 Mai, Mittwoch

    Zeit Temperatur Niederschläge Wind Luftdruck Luftfeuchtigkeit
    00:00 +13°C° 0 mm 3 m/S 737 mmHg 86%
    01:00 +13°C° 0 mm 3 m/S 737 mmHg 87%
    02:00 +13°C° 0 mm 2 m/S 737 mmHg 88%
    03:00 +13°C° 0 mm 2 m/S 737 mmHg 88%
    04:00 +12°C° 0 mm 2 m/S 737 mmHg 89%
    05:00 +12°C° 0 mm 2 m/S 736 mmHg 89%
    06:00 +14°C° 0 mm 2 m/S 736 mmHg 83%
    07:00 +16°C° 0 mm 2 m/S 736 mmHg 77%
    08:00 +18°C° 0 mm 3 m/S 736 mmHg 71%
    09:00 +19°C° 0 mm 3 m/S 736 mmHg 65%
    10:00 +21°C° 0 mm 3 m/S 736 mmHg 59%
    11:00 +22°C° 0 mm 3 m/S 736 mmHg 53%
    12:00 +24°C° 0 mm 3 m/S 736 mmHg 51%
    13:00 +24°C° 0 mm 3 m/S 735 mmHg 49%
    14:00 +25°C° 0 mm 2 m/S 735 mmHg 46%
    15:00 +25°C° 0 mm 2 m/S 735 mmHg 48%
    16:00 +24°C° 0 mm 2 m/S 734 mmHg 49%
    17:00 +24°C° 0 mm 2 m/S 734 mmHg 51%
    18:00 +21°C° 0 mm 2 m/S 733 mmHg 56%
    19:00 +19°C° 0 mm 2 m/S 733 mmHg 61%
    20:00 +19°C° 0 mm 1 m/S 733 mmHg 67%
    21:00 +18°C° 0 mm 1 m/S 733 mmHg 69%
    22:00 +16°C° 0 mm 1 m/S 733 mmHg 70%
    23:00 +15°C° 0 mm 1 m/S 733 mmHg 72%

    31 Mai, Donnerstag

    Zeit Temperatur Niederschläge Wind Luftdruck Luftfeuchtigkeit
    00:00 +14°C° 0 mm 1 m/S 732 mmHg 74%
    01:00 +14°C° 0 mm 1 m/S 732 mmHg 75%
    02:00 +13°C° 0 mm 1 m/S 732 mmHg 77%
    03:00 +13°C° 0 mm 1 m/S 731 mmHg 77%
    04:00 +13°C° 0 mm 1 m/S 731 mmHg 77%
    05:00 +13°C° 0 mm 1 m/S 731 mmHg 77%
    06:00 +15°C° 0 mm 1 m/S 731 mmHg 72%
    07:00 +19°C° 0 mm 1 m/S 731 mmHg 67%
    08:00 +21°C° 0 mm 1 m/S 731 mmHg 61%
    09:00 +22°C° 0 mm 1 m/S 731 mmHg 57%
    10:00 +23°C° 0 mm 1 m/S 730 mmHg 53%
    11:00 +25°C° 0 mm 1 m/S 730 mmHg 48%
    12:00 +25°C° 0 mm 1 m/S 730 mmHg 47%
    13:00 +25°C° 0 mm 1 m/S 730 mmHg 45%
    14:00 +26°C° 0 mm 1 m/S 729 mmHg 44%
    15:00 +26°C° 0 mm 1 m/S 729 mmHg 45%
    16:00 +26°C° 0 mm 1 m/S 728 mmHg 46%
    17:00 +26°C° 0 mm 1 m/S 728 mmHg 47%
    18:00 +24°C° 0 mm 1 m/S 728 mmHg 52%
    19:00 +22°C° 0 mm 1 m/S 728 mmHg 57%
    20:00 +20°C° 0 mm 1 m/S 727 mmHg 62%
    21:00 +19°C° 0 mm 1 m/S 727 mmHg 63%
    22:00 +19°C° 0 mm 1 m/S 727 mmHg 65%
    23:00 +18°C° 0 mm 1 m/S 727 mmHg 66%

    1 Juni, Freitag

    Zeit Temperatur Niederschläge Wind Luftdruck Luftfeuchtigkeit
    00:00 +18°C° 0 mm 1 m/S 727 mmHg 67%
    01:00 +18°C° 0 mm 1 m/S 727 mmHg 69%
    02:00 +18°C° 0 mm 1 m/S 726 mmHg 70%
    03:00 +16°C° 0,4 mm 2 m/S 726 mmHg 76%
    04:00 +16°C° 0,4 mm 2 m/S 726 mmHg 81%
    05:00 +16°C° 0,4 mm 3 m/S 726 mmHg 86%
    06:00 +14°C° 2,5 mm 4 m/S 726 mmHg 89%
    07:00 +14°C° 2,5 mm 4 m/S 726 mmHg 92%
    08:00 +14°C° 2,5 mm 4 m/S 726 mmHg 95%
    09:00 +14°C° 3 mm 5 m/S 726 mmHg 94%
    10:00 +14°C° 3 mm 5 m/S 726 mmHg 94%
    11:00 +14°C° 3 mm 5 m/S 726 mmHg 93%
    12:00 +13°C° 2,2 mm 6 m/S 727 mmHg 93%
    13:00 +12°C° 2,2 mm 7 m/S 727 mmHg 93%
    14:00 +11°C° 2,2 mm 8 m/S 727 mmHg 93%
    15:00 +10°C° 1 mm 8 m/S 727 mmHg 93%
    16:00 +10°C° 1 mm 8 m/S 727 mmHg 93%
    17:00 +8°C° 1 mm 9 m/S 728 mmHg 92%
    18:00 +8°C° 0,9 mm 9 m/S 728 mmHg 92%
    19:00 +7°C° 0,9 mm 9 m/S 728 mmHg 92%
    20:00 +7°C° 0,9 mm 9 m/S 728 mmHg 92%
    21:00 +7°C° 2,1 mm 10 m/S 728 mmHg 93%
    22:00 +6°C° 2,1 mm 10 m/S 728 mmHg 93%
    23:00 +6°C° 2,1 mm 10 m/S 727 mmHg 93%

    2 Juni, Samstag

    Zeit Temperatur Niederschläge Wind Luftdruck Luftfeuchtigkeit
    00:00 +6°C° 2,8 mm 10 m/S 727 mmHg 93%
    01:00 +6°C° 2,8 mm 10 m/S 727 mmHg 94%
    02:00 +6°C° 2,8 mm 10 m/S 726 mmHg 94%
    03:00 +5°C° 2,1 mm 10 m/S 726 mmHg 94%
    04:00 +5°C° 2,1 mm 10 m/S 726 mmHg 94%
    05:00 +5°C° 2,1 mm 10 m/S 725 mmHg 94%
    06:00 +5°C° 3,9 mm 10 m/S 725 mmHg 94%
    07:00 +5°C° 3,9 mm 10 m/S 725 mmHg 94%
    08:00 +5°C° 3,9 mm 10 m/S 725 mmHg 94%
    09:00 +6°C° 2 mm 10 m/S 725 mmHg 94%
    10:00 +6°C° 2 mm 9 m/S 725 mmHg 94%
    11:00 +7°C° 2 mm 9 m/S 726 mmHg 94%
    12:00 +7°C° 1,1 mm 8 m/S 726 mmHg 94%
    13:00 +9°C° 1,1 mm 8 m/S 726 mmHg 94%
    14:00 +9°C° 1,1 mm 7 m/S 726 mmHg 94%
    15:00 +9°C° 0,4 mm 7 m/S 726 mmHg 94%
    16:00 +10°C° 0,4 mm 6 m/S 726 mmHg 94%
    17:00 +10°C° 0,4 mm 5 m/S 726 mmHg 95%
    18:00 +10°C° 0,3 mm 5 m/S 727 mmHg 95%
    19:00 +10°C° 0,3 mm 5 m/S 727 mmHg 96%
    20:00 +11°C° 0,3 mm 4 m/S 727 mmHg 96%
    21:00 +11°C° 0,4 mm 4 m/S 727 mmHg 96%
    22:00 +11°C° 0,4 mm 3 m/S 727 mmHg 97%
    23:00 +10°C° 0,4 mm 3 m/S 727 mmHg 97%
    Mehr zeigen